BVG006 EGKA-EGBK

Flight info

Callsign BVG006
Flight time 1h 1m
Altitude 12000
Route 5049N00008W DCT 5044N00015E DCT EGKB
Aircraft M20T/L-SDFGRY/S

Departure

Time 2026-04-29 02:18
Airport Brighton City Airport (EGKA)

Arrival

Time 2026-04-29 03:20
Airport Sywell Aerodrome (EGBK)
Time Latitude Longitude Altitude Speed Heading
2026-04-29 01:59 50.83355 -0.28992 11 ft 0 kts 165°
2026-04-29 02:12 50.83354 -0.28991 11 ft 1 kts 155°
2026-04-29 02:12 50.83356 -0.28976 11 ft 3 kts 17°
2026-04-29 02:12 50.83392 -0.28922 11 ft 13 kts 80°
2026-04-29 02:12 50.83441 -0.28769 11 ft 18 kts
2026-04-29 02:13 50.83568 -0.28797 11 ft 14 kts 360°
2026-04-29 02:13 50.83603 -0.28829 11 ft 0 kts 348°
2026-04-29 02:13 50.83675 -0.28925 11 ft 33 kts 316°
2026-04-29 02:13 50.83824 -0.29222 11 ft 29 kts 294°
2026-04-29 02:14 50.83917 -0.29385 11 ft 12 kts
2026-04-29 02:14 50.83952 -0.29383 11 ft 0 kts 342°
2026-04-29 02:14 50.83952 -0.29384 11 ft 0 kts 342°
2026-04-29 02:14 50.83974 -0.29409 11 ft 14 kts 316°
2026-04-29 02:15 50.83977 -0.29485 11 ft 0 kts 162°
2026-04-29 02:15 50.83966 -0.29483 11 ft 4 kts 188°
2026-04-29 02:15 50.83919 -0.29503 11 ft 3 kts 205°
2026-04-29 02:16 50.83917 -0.29505 11 ft 0 kts 200°
2026-04-29 02:17 50.83885 -0.29523 11 ft 20 kts 201°
2026-04-29 02:17 50.83606 -0.29696 11 ft 66 kts 201°
2026-04-29 02:18 50.83110 -0.30005 164 ft 79 kts 201°
2026-04-29 02:18 50.82557 -0.30139 362 ft 87 kts 159°
2026-04-29 02:18 50.82266 -0.29351 564 ft 92 kts 84°
2026-04-29 02:18 50.82438 -0.28359 803 ft 99 kts 73°
2026-04-29 02:19 50.82630 -0.27247 1020 ft 108 kts 74°
2026-04-29 02:19 50.82805 -0.26039 1224 ft 117 kts 79°
2026-04-29 02:19 50.82850 -0.24701 1422 ft 126 kts 90°
2026-04-29 02:19 50.82773 -0.23303 1665 ft 129 kts 95°
2026-04-29 02:20 50.82643 -0.21902 1915 ft 129 kts 97°
2026-04-29 02:20 50.82494 -0.20519 2154 ft 126 kts 97°
2026-04-29 02:20 50.82342 -0.19179 2390 ft 121 kts 97°
2026-04-29 02:20 50.82195 -0.17901 2617 ft 115 kts 97°
2026-04-29 02:21 50.82056 -0.16699 2839 ft 109 kts 97°
2026-04-29 02:21 50.81924 -0.15553 3060 ft 103 kts 97°
2026-04-29 02:21 50.81798 -0.14467 3279 ft 98 kts 97°
2026-04-29 02:21 50.81663 -0.13442 3492 ft 92 kts 102°
2026-04-29 02:22 50.81483 -0.12524 3674 ft 84 kts 104°
2026-04-29 02:22 50.81303 -0.11658 3775 ft 86 kts 105°
2026-04-29 02:22 50.81115 -0.10775 3927 ft 83 kts 105°
2026-04-29 02:22 50.80924 -0.09884 4068 ft 85 kts 106°
2026-04-29 02:23 50.80736 -0.09012 4210 ft 87 kts 106°
2026-04-29 02:23 50.80543 -0.08113 4373 ft 86 kts 107°
2026-04-29 02:23 50.80347 -0.07205 4526 ft 86 kts 107°
2026-04-29 02:23 50.80152 -0.06302 4668 ft 88 kts 107°
2026-04-29 02:24 50.79955 -0.05392 4820 ft 89 kts 108°
2026-04-29 02:24 50.79754 -0.04460 4976 ft 89 kts 108°
2026-04-29 02:24 50.79551 -0.03524 5124 ft 90 kts 108°
2026-04-29 02:25 50.79148 -0.01659 5422 ft 91 kts 109°
2026-04-29 02:25 50.78940 -0.00698 5573 ft 91 kts 110°
2026-04-29 02:25 50.78735 0.00247 5718 ft 92 kts 110°
2026-04-29 02:25 50.78522 0.01228 5872 ft 93 kts 111°
2026-04-29 02:26 50.78315 0.02181 6020 ft 93 kts 111°
2026-04-29 02:26 50.78104 0.03155 6168 ft 94 kts 112°
2026-04-29 02:26 50.77895 0.04120 6314 ft 94 kts 112°
2026-04-29 02:26 50.77680 0.05108 6465 ft 94 kts 113°
2026-04-29 02:27 50.77469 0.06078 6611 ft 95 kts 114°
2026-04-29 02:27 50.77254 0.07069 6760 ft 95 kts 114°
2026-04-29 02:27 50.77041 0.08048 6908 ft 95 kts 114°
2026-04-29 02:27 50.76823 0.09048 7058 ft 95 kts 114°
2026-04-29 02:28 50.76598 0.10074 7170 ft 102 kts 113°
2026-04-29 02:28 50.76377 0.11098 7358 ft 99 kts 114°
2026-04-29 02:28 50.76149 0.12139 7530 ft 98 kts 114°
2026-04-29 02:28 50.75922 0.13181 7664 ft 102 kts 114°
2026-04-29 02:29 50.75698 0.14209 7845 ft 100 kts 114°
2026-04-29 02:29 50.75469 0.15257 8010 ft 99 kts 114°
2026-04-29 02:29 50.75241 0.16303 8152 ft 102 kts 114°
2026-04-29 02:29 50.75016 0.17335 8305 ft 101 kts 114°
2026-04-29 02:30 50.74793 0.18352 8443 ft 101 kts 114°
2026-04-29 02:30 50.74561 0.19414 8575 ft 103 kts 114°
2026-04-29 02:30 50.74331 0.20462 8727 ft 101 kts 114°
2026-04-29 02:30 50.74099 0.21524 8865 ft 102 kts 114°
2026-04-29 02:31 50.73867 0.22579 9000 ft 103 kts 114°
2026-04-29 02:31 50.73634 0.23640 9149 ft 102 kts 114°
2026-04-29 02:31 50.73420 0.24708 9277 ft 105 kts 100°
2026-04-29 02:31 50.73692 0.25751 9339 ft 103 kts 22°
2026-04-29 02:32 50.74249 0.25756 9520 ft 74 kts 313°
2026-04-29 02:32 50.74640 0.25319 9708 ft 68 kts 314°
2026-04-29 02:32 50.75050 0.24887 9831 ft 70 kts 315°
2026-04-29 02:32 50.75456 0.24470 9952 ft 73 kts 316°
2026-04-29 02:33 50.75926 0.24146 10124 ft 73 kts 327°
2026-04-29 02:33 50.76435 0.23905 10242 ft 77 kts 332°
2026-04-29 02:33 50.76948 0.23705 10382 ft 78 kts 332°
2026-04-29 02:33 50.77470 0.23512 10537 ft 76 kts 333°
2026-04-29 02:34 50.77995 0.23319 10656 ft 79 kts 333°
2026-04-29 02:34 50.78518 0.23132 10803 ft 78 kts 333°
2026-04-29 02:34 50.79051 0.22939 10948 ft 77 kts 333°
2026-04-29 02:34 50.79578 0.22748 11072 ft 79 kts 333°
2026-04-29 02:35 50.80105 0.22560 11221 ft 78 kts 333°
2026-04-29 02:35 50.80639 0.22366 11357 ft 78 kts 333°
2026-04-29 02:35 50.81145 0.22184 11482 ft 79 kts 333°
2026-04-29 02:35 50.81697 0.21986 11633 ft 78 kts 333°
2026-04-29 02:36 50.82237 0.21790 11764 ft 79 kts 333°
2026-04-29 02:36 50.82770 0.21599 11904 ft 79 kts 333°
2026-04-29 02:36 50.83314 0.21399 12009 ft 84 kts 333°
2026-04-29 02:36 50.83937 0.21165 12052 ft 99 kts 335°
2026-04-29 02:37 50.84668 0.20891 12050 ft 117 kts 336°
2026-04-29 02:37 50.85513 0.20580 12034 ft 132 kts 338°
2026-04-29 02:37 50.86441 0.20243 12021 ft 143 kts 339°
2026-04-29 02:37 50.87448 0.19879 12013 ft 152 kts 339°
2026-04-29 02:38 50.88504 0.19499 12009 ft 158 kts 340°
2026-04-29 02:38 50.89596 0.19106 12006 ft 163 kts 340°
2026-04-29 02:38 50.90713 0.18704 12004 ft 166 kts 340°
2026-04-29 02:38 50.91834 0.18300 12003 ft 168 kts 340°
2026-04-29 02:39 50.92987 0.17885 12002 ft 170 kts 340°
2026-04-29 02:39 50.94149 0.17466 12001 ft 171 kts 340°
2026-04-29 02:39 50.95307 0.17047 12001 ft 172 kts 340°
2026-04-29 02:39 50.96096 0.16761 12001 ft 172 kts 340°
2026-04-29 02:40 50.97658 0.16196 12001 ft 173 kts 340°
2026-04-29 02:40 50.98437 0.15914 12000 ft 173 kts 340°
2026-04-29 02:40 51.00002 0.15346 12000 ft 174 kts 340°
2026-04-29 02:40 51.00789 0.15060 12000 ft 174 kts 340°
2026-04-29 02:41 51.01977 0.14629 12000 ft 174 kts 340°
2026-04-29 02:41 51.03147 0.14204 12000 ft 174 kts 340°
2026-04-29 02:41 51.04327 0.13774 12000 ft 174 kts 340°
2026-04-29 02:41 51.05510 0.13344 12000 ft 174 kts 340°
2026-04-29 02:42 51.06689 0.12915 12000 ft 174 kts 340°
2026-04-29 02:42 51.07871 0.12484 12000 ft 174 kts 340°
2026-04-29 02:42 51.09058 0.12051 12000 ft 174 kts 340°
2026-04-29 02:42 51.10241 0.11620 12000 ft 174 kts 340°
2026-04-29 02:43 51.11428 0.11187 12000 ft 174 kts 340°
2026-04-29 02:43 51.12611 0.10755 12000 ft 174 kts 340°
2026-04-29 02:43 51.13793 0.10323 12000 ft 174 kts 340°
2026-04-29 02:43 51.14975 0.09891 12000 ft 174 kts 340°
2026-04-29 02:44 51.16170 0.09454 12000 ft 174 kts 340°
2026-04-29 02:44 51.17336 0.09028 12000 ft 174 kts 340°
2026-04-29 02:44 51.18543 0.08586 12000 ft 174 kts 340°
2026-04-29 02:44 51.19709 0.08159 12000 ft 174 kts 340°
2026-04-29 02:45 51.20894 0.07724 12000 ft 174 kts 340°
2026-04-29 02:45 51.22079 0.07290 12000 ft 174 kts 340°
2026-04-29 02:45 51.23261 0.06857 12000 ft 174 kts 340°
2026-04-29 02:45 51.24453 0.06420 11999 ft 174 kts 340°
2026-04-29 02:46 51.25608 0.05996 11999 ft 173 kts 340°
2026-04-29 02:46 51.26789 0.05563 11999 ft 172 kts 340°
2026-04-29 02:46 51.27948 0.05137 11999 ft 171 kts 340°
2026-04-29 02:46 51.29106 0.04711 12000 ft 171 kts 340°
2026-04-29 02:47 51.30265 0.04285 12000 ft 171 kts 340°
2026-04-29 02:47 51.31421 0.03860 12000 ft 171 kts 340°
2026-04-29 02:47 51.32546 0.03279 11998 ft 165 kts 324°
2026-04-29 02:47 51.33428 0.02204 12004 ft 161 kts 312°
2026-04-29 02:48 51.34228 0.00949 12001 ft 160 kts 309°
2026-04-29 02:48 51.34986 -0.00340 12000 ft 160 kts 308°
2026-04-29 02:48 51.35737 -0.01659 12000 ft 159 kts 307°
2026-04-29 02:48 51.36474 -0.02976 12000 ft 159 kts 307°
2026-04-29 02:49 51.37213 -0.04307 12000 ft 159 kts 307°
2026-04-29 02:49 51.37945 -0.05635 12000 ft 159 kts 307°
2026-04-29 02:49 51.38676 -0.06965 12000 ft 159 kts 307°
2026-04-29 02:49 51.39399 -0.08285 12000 ft 159 kts 306°
2026-04-29 02:50 51.40131 -0.09620 12000 ft 159 kts 306°
2026-04-29 02:50 51.40865 -0.10963 12000 ft 159 kts 306°
2026-04-29 02:50 51.41591 -0.12291 12000 ft 159 kts 306°
2026-04-29 02:50 51.42319 -0.13625 12000 ft 159 kts 306°
2026-04-29 02:51 51.43046 -0.14957 12000 ft 159 kts 306°
2026-04-29 02:51 51.43780 -0.16303 12000 ft 159 kts 306°
2026-04-29 02:51 51.44512 -0.17645 12000 ft 159 kts 306°
2026-04-29 02:51 51.45233 -0.18969 12000 ft 159 kts 306°
2026-04-29 02:52 51.45963 -0.20311 12000 ft 159 kts 306°
2026-04-29 02:52 51.46694 -0.21654 12000 ft 159 kts 306°
2026-04-29 02:52 51.47412 -0.22974 12000 ft 159 kts 306°
2026-04-29 02:52 51.48150 -0.24332 12000 ft 159 kts 306°
2026-04-29 02:53 51.48872 -0.25661 12000 ft 159 kts 306°
2026-04-29 02:53 51.49605 -0.27011 12000 ft 159 kts 306°
2026-04-29 02:53 51.50324 -0.28335 12000 ft 159 kts 306°
2026-04-29 02:53 51.51057 -0.29687 12000 ft 159 kts 306°
2026-04-29 02:54 51.51788 -0.31035 12000 ft 159 kts 306°
2026-04-29 02:54 51.52509 -0.32366 12000 ft 159 kts 306°
2026-04-29 02:54 51.53241 -0.33718 12000 ft 159 kts 306°
2026-04-29 02:54 51.53959 -0.35044 12000 ft 159 kts 306°
2026-04-29 02:55 51.54694 -0.36403 12000 ft 159 kts 306°
2026-04-29 02:55 51.55417 -0.37741 12000 ft 159 kts 306°
2026-04-29 02:55 51.56151 -0.39097 12000 ft 159 kts 306°
2026-04-29 02:55 51.56869 -0.40427 12000 ft 159 kts 306°
2026-04-29 02:56 51.57593 -0.41769 12000 ft 159 kts 306°
2026-04-29 02:56 51.58321 -0.43117 12000 ft 159 kts 306°
2026-04-29 02:56 51.59046 -0.44462 12000 ft 159 kts 306°
2026-04-29 02:56 51.59774 -0.45814 12000 ft 159 kts 306°
2026-04-29 02:57 51.60485 -0.47132 12000 ft 159 kts 306°
2026-04-29 02:57 51.61217 -0.48493 12000 ft 159 kts 306°
2026-04-29 02:57 51.61950 -0.49854 12000 ft 159 kts 306°
2026-04-29 02:57 51.62672 -0.51197 12000 ft 159 kts 306°
2026-04-29 02:58 51.63410 -0.52570 12000 ft 159 kts 306°
2026-04-29 02:58 51.64125 -0.53903 11946 ft 163 kts 306°
2026-04-29 02:58 51.64885 -0.55323 11751 ft 172 kts 306°
2026-04-29 02:58 51.65687 -0.56822 11483 ft 181 kts 307°
2026-04-29 02:59 51.66516 -0.58369 11213 ft 185 kts 307°
2026-04-29 02:59 51.67360 -0.59940 10940 ft 187 kts 307°
2026-04-29 02:59 51.68216 -0.61533 10665 ft 188 kts 307°
2026-04-29 02:59 51.69064 -0.63113 10393 ft 188 kts 307°
2026-04-29 03:00 51.69881 -0.64638 10131 ft 188 kts 307°
2026-04-29 03:00 51.70748 -0.66256 9852 ft 188 kts 307°
2026-04-29 03:00 51.71600 -0.67850 9578 ft 188 kts 307°
2026-04-29 03:00 51.72445 -0.69431 9305 ft 187 kts 307°
2026-04-29 03:01 51.73298 -0.71028 9028 ft 186 kts 307°
2026-04-29 03:01 51.74139 -0.72605 8753 ft 185 kts 307°
2026-04-29 03:01 51.74976 -0.74174 8478 ft 184 kts 307°
2026-04-29 03:01 51.75806 -0.75734 8204 ft 184 kts 307°
2026-04-29 03:02 51.76640 -0.77300 7928 ft 183 kts 307°
2026-04-29 03:02 51.77465 -0.78852 7654 ft 182 kts 307°
2026-04-29 03:02 51.78296 -0.80414 7376 ft 182 kts 307°
2026-04-29 03:02 51.79116 -0.81959 7101 ft 181 kts 307°
2026-04-29 03:03 51.79934 -0.83500 6826 ft 181 kts 307°
2026-04-29 03:03 51.80758 -0.85053 6548 ft 180 kts 307°
2026-04-29 03:03 51.81564 -0.86575 6276 ft 179 kts 307°
2026-04-29 03:03 51.82371 -0.88097 6108 ft 174 kts 307°
2026-04-29 03:04 51.83135 -0.89539 6021 ft 166 kts 307°
2026-04-29 03:04 51.83860 -0.90908 5998 ft 157 kts 307°
2026-04-29 03:04 51.84503 -0.92124 5995 ft 151 kts 307°
2026-04-29 03:04 51.85192 -0.93430 5995 ft 146 kts 307°
2026-04-29 03:05 51.85834 -0.94650 5996 ft 143 kts 307°
2026-04-29 03:05 51.86472 -0.95861 5997 ft 140 kts 307°
2026-04-29 03:05 51.87102 -0.97058 5998 ft 138 kts 307°
2026-04-29 03:05 51.87720 -0.98232 5998 ft 137 kts 307°
2026-04-29 03:06 51.88335 -0.99402 5999 ft 136 kts 307°
2026-04-29 03:06 51.88939 -1.00550 5999 ft 135 kts 307°
2026-04-29 03:06 51.89558 -1.01727 5999 ft 134 kts 307°
2026-04-29 03:06 51.90153 -1.02860 5999 ft 134 kts 307°
2026-04-29 03:07 51.90781 -1.03971 5996 ft 136 kts 317°
2026-04-29 03:07 51.91676 -1.04556 6007 ft 140 kts 339°
2026-04-29 03:07 51.92634 -1.04867 6002 ft 142 kts 343°
2026-04-29 03:07 51.93608 -1.05127 6000 ft 142 kts 344°
2026-04-29 03:08 51.94586 -1.05378 6000 ft 142 kts 344°
2026-04-29 03:08 51.95567 -1.05628 6000 ft 142 kts 344°
2026-04-29 03:08 51.96541 -1.05875 6000 ft 142 kts 344°
2026-04-29 03:08 51.97517 -1.06124 5956 ft 145 kts 345°
2026-04-29 03:09 51.98556 -1.06394 5768 ft 156 kts 345°
2026-04-29 03:09 51.99664 -1.06679 5526 ft 165 kts 346°
2026-04-29 03:09 52.00817 -1.06972 5282 ft 171 kts 346°
2026-04-29 03:09 52.02001 -1.07270 5035 ft 174 kts 347°
2026-04-29 03:10 52.03212 -1.07574 4803 ft 173 kts 347°
2026-04-29 03:10 52.04392 -1.07870 4552 ft 171 kts 348°
2026-04-29 03:10 52.05568 -1.08168 4300 ft 170 kts 348°
2026-04-29 03:10 52.06718 -1.08461 4052 ft 168 kts 348°
2026-04-29 03:11 52.07872 -1.08756 3802 ft 168 kts 348°
2026-04-29 03:11 52.09020 -1.09050 3552 ft 167 kts 349°
2026-04-29 03:11 52.10167 -1.09344 3301 ft 166 kts 349°
2026-04-29 03:11 52.11312 -1.09638 3051 ft 166 kts 349°
2026-04-29 03:12 52.12446 -1.09929 2802 ft 166 kts 349°
2026-04-29 03:12 52.13597 -1.10226 2549 ft 166 kts 350°
2026-04-29 03:12 52.14729 -1.10518 2300 ft 166 kts 350°
2026-04-29 03:12 52.15864 -1.10811 2122 ft 162 kts 350°
2026-04-29 03:13 52.16953 -1.11094 2024 ft 156 kts 350°
2026-04-29 03:13 52.17982 -1.10900 1989 ft 150 kts 26°
2026-04-29 03:13 52.18698 -1.09742 2006 ft 144 kts 51°
2026-04-29 03:13 52.19245 -1.08397 1999 ft 140 kts 55°
2026-04-29 03:14 52.19755 -1.07071 1997 ft 138 kts 55°
2026-04-29 03:14 52.20264 -1.05756 1997 ft 136 kts 55°
2026-04-29 03:14 52.20767 -1.04472 1998 ft 134 kts 54°
2026-04-29 03:14 52.21274 -1.03187 1951 ft 137 kts 54°
2026-04-29 03:15 52.21810 -1.01837 1811 ft 144 kts 55°
2026-04-29 03:15 52.22372 -1.00419 1574 ft 154 kts 55°
2026-04-29 03:15 52.22974 -0.98898 1327 ft 161 kts 56°
2026-04-29 03:15 52.23580 -0.97366 1083 ft 164 kts 56°
2026-04-29 03:16 52.24197 -0.95805 872 ft 164 kts 57°
2026-04-29 03:16 52.24806 -0.94265 731 ft 159 kts 57°
2026-04-29 03:16 52.25396 -0.92775 770 ft 148 kts 57°
2026-04-29 03:16 52.25947 -0.91384 703 ft 144 kts 57°
2026-04-29 03:17 52.26478 -0.90041 545 ft 135 kts 57°
2026-04-29 03:17 52.26939 -0.88846 623 ft 115 kts 58°
2026-04-29 03:17 52.27344 -0.87788 670 ft 105 kts 58°
2026-04-29 03:17 52.27713 -0.86823 678 ft 96 kts 58°
2026-04-29 03:18 52.28058 -0.85921 665 ft 94 kts 58°
2026-04-29 03:18 52.28412 -0.84993 611 ft 96 kts 58°
2026-04-29 03:18 52.28760 -0.84080 594 ft 94 kts 58°
2026-04-29 03:18 52.29095 -0.83199 591 ft 91 kts 58°
2026-04-29 03:19 52.29425 -0.82334 593 ft 89 kts 58°
2026-04-29 03:19 52.29750 -0.81478 595 ft 88 kts 58°
2026-04-29 03:19 52.30071 -0.80636 593 ft 87 kts 58°
2026-04-29 03:19 52.30427 -0.79701 474 ft 94 kts 58°
2026-04-29 03:20 52.30734 -0.78896 423 ft 71 kts 58°
2026-04-29 03:20 52.30880 -0.78513 414 ft 3 kts 57°